Olathe, KS

3:41 AM CDT on March 27, 2017 (GMT -0500)
Johnson County Executive

Weather History for KOJC - August, 2013

Change the Weather History Date:

Monday, August 19, 2013

  Actual Average Record
Temperature  
Mean Temperature 73 °F 78 °F  
Max Temperature 84 °F 87 °F 100 °F (1962)
Min Temperature 62 °F 68 °F 53 °F (1981)
Degree Days  
Heating Degree Days 0 0  
Month to date heating degree days 0 0  
Since 1 June heating degree days 14 8  
Since 1 July heating degree days 0 0  
Cooling Degree Days 8 13  
Month to date cooling degree days 155 260  
Year to date cooling degree days 925 1032  
Since 1 June cooling degree days 824 928  
Growing Degree Days 22 (Base 50)    
Moisture  
Dew Point 62 °F    
Average Humidity 70    
Maximum Humidity 93    
Minimum Humidity 47    
Precipitation  
Precipitation 0.00 in 0.15 in 1.52 in (1949)
Month to date precipitation 2.67 1.94  
Year to date precipitation 26.50 26.18  
Sea Level Pressure  
Sea Level Pressure 30.05 in    
Wind  
Wind Speed 6 mph (South)    
Max Wind Speed 14 mph    
Max Gust Speed 17 mph    
Visibility 9 miles    
Events      
T = Trace of Precipitation, MM = Missing Value Source: NWS Daily Summary

Daily Weather History Graph

Daily Weather History Graph

Search for Another Location

Airport or City:

Trip Planner

Search our weather history database for the weather conditions in past years. The results will help you decide how hot, cold, wet, or windy it might be!

Date:

Astronomy

Aug. 19, 2013 Rise Set
Actual Time 6:36 AM CDT 8:07 PM CDT
Civil Twilight 6:08 AM CDT 8:35 PM CDT
Nautical Twilight 5:34 AM CDT 9:09 PM CDT
Astronomical Twilight 4:58 AM CDT 9:45 PM CDT
Moon 6:59 PM CDT (8/19) 4:56 AM CDT (8/19)
Length of Visible Light 14h 27m
Length of Day
13h 31m
Waxing Gibbous, 97% of the Moon is Illuminated
Aug 19
Waxing Gibbous
Aug 20
Full
Aug 28
Last Quarter
Sep 5
New
Sep 12
First Quarter

Hourly Weather History & Observations

Time (CDT) Temp. Heat Index Dew Point Humidity Pressure Visibility Wind Dir Wind Speed Gust Speed Precip Events Conditions
12:53 AM 66.9 °F - 61.0 °F 81% 30.10 in 9.0 mi Calm Calm - N/A   Clear
1:53 AM 64.9 °F - 61.0 °F 87% 30.09 in 8.0 mi SSE 3.5 mph - N/A   Clear
2:53 AM 63.0 °F - 60.1 °F 90% 30.07 in 8.0 mi SE 4.6 mph - N/A   Clear
3:53 AM 64.0 °F - 61.0 °F 90% 30.06 in 8.0 mi Calm Calm - N/A   Clear
4:53 AM 63.0 °F - 61.0 °F 93% 30.06 in 6.0 mi South 3.5 mph - N/A   Clear
5:53 AM 63.0 °F - 60.1 °F 90% 30.07 in 6.0 mi SE 3.5 mph - N/A   Clear
6:53 AM 62.1 °F - 61.0 °F 96% 30.09 in 4.0 mi SE 3.5 mph - N/A   Clear
7:53 AM 64.9 °F - 62.1 °F 90% 30.10 in 5.0 mi South 4.6 mph - N/A   Clear
8:53 AM 70.0 °F - 64.9 °F 84% 30.09 in 7.0 mi South 5.8 mph - N/A   Clear
9:53 AM 75.9 °F - 66.0 °F 71% 30.09 in 10.0 mi SSE 4.6 mph - N/A   Clear
10:53 AM 79.0 °F - 64.0 °F 60% 30.10 in 10.0 mi SSE 11.5 mph - N/A   Scattered Clouds
11:53 AM 79.0 °F - 61.0 °F 54% 30.09 in 10.0 mi SSW 10.4 mph - N/A   Scattered Clouds
12:53 PM 81.0 °F 81.6 °F 60.1 °F 49% 30.08 in 10.0 mi South 8.1 mph 17.3 mph N/A   Partly Cloudy
1:53 PM 82.0 °F 82.7 °F 61.0 °F 49% 30.06 in 10.0 mi South 12.7 mph - N/A   Partly Cloudy
2:53 PM 82.9 °F 83.2 °F 60.1 °F 46% 30.04 in 10.0 mi South 10.4 mph - N/A   Clear
3:53 PM 82.9 °F 83.7 °F 62.1 °F 49% 30.02 in 10.0 mi South 9.2 mph - N/A   Clear
4:53 PM 82.9 °F 83.7 °F 62.1 °F 49% 30.01 in 10.0 mi SW 8.1 mph - N/A   Partly Cloudy
5:53 PM 82.0 °F 83.1 °F 63.0 °F 52% 30.00 in 10.0 mi South 9.2 mph - N/A   Clear
6:53 PM 81.0 °F 82.2 °F 63.0 °F 54% 29.99 in 10.0 mi SSW 8.1 mph - N/A   Clear
7:53 PM 75.9 °F - 64.9 °F 69% 29.99 in 10.0 mi SSE 4.6 mph - N/A   Clear
8:53 PM 73.9 °F - 64.0 °F 71% 30.00 in 10.0 mi Calm Calm - N/A   Clear
9:53 PM 73.0 °F - 64.0 °F 73% 30.01 in 10.0 mi SSE 4.6 mph - N/A   Clear
10:53 PM 71.1 °F - 63.0 °F 75% 30.01 in 10.0 mi SSE 3.5 mph - N/A   Clear
11:53 PM 70.0 °F - 63.0 °F 78% 30.02 in 10.0 mi SSE 4.6 mph - N/A   Clear